Vertical_Velocity
7 3 -1 -1 -1 4 7 1 1 1 -0 1 0 -2 2 3 1 0 1 -1 -1 -0 1 1 1 2 0 2 0 3 2 1 0 -1 -2 1 3 2 2 0 0 -1 -0
4 7 4 -4 -3 -1 2 -1 2 1 0 0 0 -0 -1 4 4 3 0 0 -1 1 -0 0 1 2 1 1 1 -0 0 1 -1 0 -0 1 -1 2 0 -4 -4 -4 -3
5 4 2 2 -3 1 5 -2 -0 -1 1 -1 1 1 1 2 3 2 -2 3 1 1 2 -0 1 3 1 0 -0 -0 -1 0 1 1 -1 3 3 4 2 -2 -4 -1 -3
2 2 6 -0 3 6 2 1 0 2 -0 -0 -1 -0 2 1 3 0 1 -0 1 -0 -1 2 2 1 0 -0 1 -0 -1 -0 0 2 0 -1 -1 -1 8 13 0 0 2
-2 2 3 5 3 0 3 -1 -0 -1 2 2 -1 2 1 1 2 -1 0 -0 2 1 2 1 -0 1 1 0 0 -1 -0 -1 -0 -0 0 -3 -3 -5 -5 12 8 2 -2
3 3 -0 -5 1 -2 2 2 1 2 3 3 2 -0 2 2 -0 1 1 1 1 1 1 0 1 0 -1 -1 0 -1 -1 -0 -1 -1 -1 -2 -1 -2 -9 -3 -0 7 20
-2 -0 -1 -2 2 3 5 2 1 2 1 0 2 2 1 0 1 1 2 2 1 1 1 1 0 -0 -1 -0 -1 -1 -1 -2 -2 -2 -2 -2 -1 0 -2 -7 -5 -10 4
5 4 1 1 -0 1 0 2 -1 2 3 1 0 2 2 1 -0 1 1 2 1 1 1 -0 0 -0 -1 -1 -1 -1 -1 -2 -1 -0 -0 -3 -3 -2 -3 -4 -10 2 -2
-4 1 -2 1 0 1 -2 -1 -3 1 3 -1 1 1 2 1 0 3 3 1 2 1 -0 -1 0 -1 -1 -1 -1 -0 -2 -1 -1 -1 -2 -1 -2 -3 -4 -5 -4 -13 -24
5 -1 1 2 2 2 3 -4 -5 -3 -1 -0 1 1 2 3 3 2 2 2 1 0 0 -1 -0 0 -1 -1 -1 -1 -0 -2 -1 -0 -1 -3 -1 -3 -2 -2 -3 -5 -15
5 1 -2 -1 2 -1 -1 4 -1 0 2 0 1 2 3 2 2 2 1 1 1 1 -0 -1 -1 -1 -2 -0 -1 -1 -2 -0 -1 -3 -1 -3 -2 -1 -2 -4 -4 -6 -8
5 6 1 -5 -4 1 -2 2 2 2 1 1 2 3 2 2 2 2 1 1 1 1 0 -1 -1 -2 -1 0 -0 -1 0 0 -2 -1 -3 -2 -1 -3 -4 -5 -2 -3 -1
5 1 -4 -3 -7 0 4 3 -1 2 1 0 2 3 2 3 3 2 1 1 1 1 -1 -1 -0 -1 -1 -1 0 1 0 -1 -3 -2 -1 0 -1 0 -3 -2 -1 -1 0
2 -1 0 3 0 0 3 -1 -0 2 2 1 3 2 3 2 2 2 1 1 1 -0 -1 1 -0 -1 -1 -0 -1 -1 -1 -1 -1 -1 -3 -3 -3 -4 -4 -2 -0 2 -2
2 2 1 0 0 0 -1 -1 1 2 2 1 1 3 1 1 2 2 2 0 1 -1 1 0 -0 -0 0 -1 -2 -0 -1 0 0 -1 -3 -4 -3 -1 -2 -6 -2 -5 -5
2 4 3 3 2 -1 2 5 2 2 1 2 3 0 1 2 2 1 1 2 -0 1 1 0 -0 -0 0 -0 -2 -3 2 0 -1 -0 1 -0 0 1 3 0 -3 -3 -14
-1 -4 -3 -1 -1 1 -0 0 2 3 3 2 2 1 1 1 1 2 1 1 1 1 0 0 -0 -1 0 -2 -1 0 -0 -1 -2 1 -3 -1 -1 -2 -5 -4 -3 3 -2
3 2 2 1 2 3 3 6 6 5 5 1 -2 -1 2 2 1 -0 1 1 0 -1 -1 1 2 -3 -1 0 -1 0 -2 -1 0 -1 -4 -3 -1 -5 -8 -3 0 5 2
2 3 3 0 3 3 4 3 5 3 -0 -1 0 1 1 1 1 1 0 -0 -1 -0 0 -1 -2 2 -2 0 -1 -2 2 -0 1 1 -2 -6 -1 1 1 -10 -4 4 -2
6 8 6 -4 -7 -1 3 1 1 0 -0 0 -0 0 1 -0 -0 0 -1 -1 0 -0 -1 -3 1 0 2 -2 2 -0 1 -1 -0 -1 -3 -2 -4 -5 -2 -3 -2 3 -0
-4 -3 1 3 6 6 1 0 0 -1 0 0 -0 -0 -0 -1 -1 -0 1 -0 -1 -0 0 2 -2 -1 -3 -0 -1 -1 -2 -4 1 -1 -1 -4 -3 -1 -3 -2 -2 -3 4
9 3 -0 0 1 0 -1 -2 -1 -1 -1 -0 -0 -1 -0 1 1 -0 -0 -0 0 1 2 2 -0 -4 -4 -6 -1 -0 -2 -4 -4 -2 -5 -2 -1 -2 -3 -1 -1 -0 -1
1 0 -2 -4 -2 -2 -3 -2 0 0 0 -0 0 1 1 -0 0 0 1 1 1 0 -0 1 1 4 -2 -2 -2 0 -3 -2 -2 -1 -3 -2 -3 -2 -2 -4 -0 -0 -1
-3 -4 -2 -2 -2 -1 -1 -0 0 0 1 0 -0 -0 -0 -0 0 1 -1 -2 -0 -0 -1 0 0 2 -1 -0 2 5 3 5 6 6 5 1 -3 -2 3 1 -1 -1 -0
-5 -2 -1 -1 -0 0 1 1 1 0 -0 -1 -1 -1 -1 -0 -1 -2 -1 -1 -1 1 3 1 -1 -3 2 1 -1 -2 -0 -4 -3 -2 0 -2 -3 -1 -2 -5 -2 -0 -0
-1 -1 0 1 1 1 0 0 0 -1 -1 -1 -1 -0 -0 -2 -1 -0 -3 2 0 -2 -4 -5 -5 4 -7 -4 -3 -2 -5 -6 -3 0 1 -2 0 1 1 1 -0 -2 1
Height
5734 5737 5739 5741 5744 5749 5754 5755 5758 5760 5762 5764 5765 5766 5768 5768 5768 5768 5770 5771 5771 5772 5772 5772 5771 5769 5768 5766 5763 5761 5760 5757 5755 5751 5746 5744 5740 5736 5733 5729 5726 5721 5718
5723 5726 5730 5732 5735 5740 5744 5747 5750 5752 5754 5756 5758 5759 5760 5761 5762 5763 5764 5763 5763 5764 5765 5765 5763 5762 5760 5758 5755 5753 5751 5748 5744 5741 5738 5734 5730 5726 5722 5718 5714 5709 5704
5712 5716 5719 5723 5725 5730 5735 5738 5741 5744 5746 5748 5751 5753 5754 5754 5755 5756 5756 5756 5758 5758 5757 5756 5756 5754 5752 5749 5747 5744 5740 5737 5734 5731 5727 5724 5722 5718 5714 5707 5701 5696 5690
5699 5705 5710 5713 5717 5722 5727 5729 5733 5737 5739 5741 5743 5746 5747 5747 5747 5748 5749 5750 5751 5750 5749 5748 5747 5746 5743 5741 5738 5734 5730 5726 5722 5718 5715 5711 5707 5704 5704 5701 5694 5687 5680
5686 5693 5698 5703 5708 5714 5718 5721 5724 5728 5732 5734 5736 5739 5739 5740 5741 5741 5742 5743 5743 5742 5742 5740 5739 5737 5735 5731 5727 5723 5719 5715 5711 5707 5702 5697 5692 5687 5683 5682 5679 5673 5666
5672 5677 5684 5690 5696 5703 5709 5713 5716 5720 5724 5727 5729 5731 5733 5733 5734 5734 5735 5735 5735 5734 5733 5732 5730 5728 5724 5720 5716 5712 5708 5703 5699 5694 5689 5684 5679 5673 5668 5663 5659 5655 5652
5656 5664 5672 5679 5685 5694 5700 5705 5708 5712 5716 5719 5721 5724 5725 5726 5727 5727 5727 5727 5727 5726 5724 5723 5721 5718 5714 5710 5706 5702 5696 5691 5686 5681 5675 5669 5664 5658 5652 5646 5641 5636 5631
5640 5650 5658 5668 5675 5683 5691 5696 5700 5704 5708 5711 5713 5716 5717 5719 5719 5719 5719 5719 5718 5717 5715 5714 5711 5708 5704 5700 5695 5690 5685 5679 5674 5668 5662 5655 5648 5641 5634 5627 5622 5620 5613
5627 5637 5647 5656 5665 5674 5682 5688 5692 5696 5700 5703 5706 5708 5710 5711 5712 5712 5711 5711 5710 5708 5707 5704 5701 5698 5694 5689 5684 5679 5673 5667 5661 5654 5648 5641 5633 5625 5617 5609 5600 5593 5591
5618 5626 5636 5647 5657 5666 5673 5680 5684 5688 5692 5695 5698 5701 5703 5704 5704 5704 5704 5703 5701 5700 5698 5695 5691 5687 5683 5678 5673 5667 5660 5654 5647 5641 5634 5625 5617 5608 5599 5591 5582 5573 5566
5608 5619 5627 5637 5648 5657 5665 5671 5677 5681 5686 5688 5692 5694 5695 5696 5696 5696 5696 5694 5692 5691 5688 5684 5681 5677 5672 5667 5661 5654 5648 5641 5634 5626 5618 5608 5599 5590 5582 5573 5563 5553 5541
5600 5611 5622 5631 5641 5650 5657 5664 5670 5675 5679 5682 5685 5687 5688 5689 5689 5688 5687 5686 5684 5682 5678 5674 5670 5666 5661 5655 5648 5641 5634 5627 5619 5610 5602 5592 5584 5575 5565 5555 5545 5532 5518
5594 5605 5616 5627 5636 5642 5650 5657 5664 5668 5672 5675 5677 5679 5680 5681 5681 5680 5679 5677 5675 5672 5668 5664 5660 5654 5649 5642 5635 5628 5621 5612 5604 5595 5586 5578 5569 5559 5548 5536 5523 5510 5494
5591 5603 5612 5621 5629 5637 5645 5653 5658 5662 5666 5668 5671 5672 5673 5673 5673 5672 5671 5669 5666 5662 5658 5654 5648 5643 5637 5630 5623 5616 5607 5598 5589 5580 5571 5562 5552 5541 5528 5514 5501 5486 5469
5590 5600 5609 5618 5626 5634 5642 5648 5652 5657 5660 5663 5664 5665 5666 5666 5665 5664 5662 5660 5656 5652 5648 5643 5637 5631 5625 5618 5610 5602 5594 5585 5576 5566 5556 5545 5533 5520 5506 5491 5475 5456 5438
5590 5600 5608 5616 5625 5632 5638 5642 5647 5651 5654 5656 5658 5659 5659 5659 5658 5656 5653 5650 5646 5642 5637 5632 5626 5620 5613 5605 5597 5589 5581 5571 5561 5552 5540 5527 5514 5501 5486 5468 5449 5426 5404
5593 5601 5608 5615 5623 5629 5633 5637 5642 5645 5648 5651 5652 5653 5652 5651 5650 5647 5644 5641 5637 5632 5626 5621 5615 5608 5600 5592 5584 5575 5566 5556 5546 5535 5522 5510 5495 5479 5464 5448 5426 5405 5386
5596 5603 5609 5615 5622 5626 5631 5634 5638 5642 5644 5645 5646 5646 5645 5644 5641 5639 5635 5631 5626 5621 5616 5610 5603 5595 5588 5580 5571 5562 5552 5542 5530 5517 5503 5490 5475 5456 5439 5423 5405 5388 5373
5596 5603 5609 5615 5620 5624 5628 5631 5634 5637 5639 5639 5639 5638 5637 5635 5633 5630 5626 5621 5616 5611 5604 5598 5591 5583 5575 5566 5557 5548 5538 5527 5515 5500 5483 5468 5454 5434 5415 5397 5385 5374 5362
5598 5604 5610 5613 5617 5622 5625 5628 5630 5632 5632 5632 5632 5631 5630 5627 5624 5620 5616 5611 5605 5599 5593 5586 5579 5571 5562 5553 5543 5533 5522 5512 5499 5481 5462 5445 5427 5408 5391 5379 5370 5362 5354
5601 5605 5609 5613 5616 5618 5621 5624 5625 5626 5626 5626 5626 5624 5622 5619 5615 5611 5606 5600 5595 5589 5582 5574 5566 5557 5549 5540 5529 5517 5505 5492 5478 5461 5443 5424 5404 5388 5376 5366 5358 5352 5346
5601 5605 5608 5609 5612 5615 5618 5619 5620 5620 5621 5620 5619 5616 5613 5609 5605 5600 5595 5590 5584 5577 5570 5562 5553 5543 5534 5524 5514 5502 5487 5472 5457 5440 5420 5403 5387 5374 5364 5356 5350 5344 5338
5600 5603 5606 5609 5611 5613 5614 5615 5615 5615 5614 5613 5611 5608 5604 5600 5595 5590 5585 5579 5573 5565 5558 5550 5541 5532 5522 5511 5500 5486 5470 5455 5437 5418 5398 5383 5371 5362 5355 5349 5343 5337 5331
5600 5602 5605 5607 5608 5609 5609 5610 5609 5609 5607 5605 5602 5599 5595 5590 5585 5580 5574 5568 5561 5553 5546 5538 5529 5520 5509 5497 5484 5471 5455 5438 5419 5400 5384 5371 5361 5355 5348 5341 5335 5329 5323
5598 5600 5602 5604 5605 5605 5605 5604 5604 5602 5600 5597 5594 5590 5585 5581 5575 5570 5563 5556 5549 5542 5535 5526 5517 5507 5494 5481 5466 5450 5432 5415 5399 5383 5371 5362 5355 5348 5341 5333 5327 5321 5315
5597 5599 5600 5601 5601 5600 5600 5599 5597 5595 5592 5589 5585 5581 5576 5571 5565 5558 5551 5545 5538 5530 5522 5512 5500 5488 5474 5460 5445 5429 5410 5395 5380 5371 5363 5356 5350 5343 5336 5328 5320 5312 5305